DW8945 Waltham MA US current weather conditions

sailwx.info

Wind from 245

Air temperature 23.3° C
Dewpoint 21.0° C

Last reported at 2020-Aug-10 07:08 UTC.
Time now 2020-Aug-10 08:11 UTC

Location: N 42°22' W 071°14'.
View on Google Maps.

See reports from other nearby stations

  
Tides and Currents Weather Stations Pressure Air Temp Water Temp Dewpoint Dewpoint Depression Visibility Wind Speed Wind Dir Waves Ship Positions
date/time (UTC)wind fromknots sea level pressurealtimeterstation pressurevisibilityair tempwater tempwave heightnotes
2020-Aug-10 07:08 245 23.3
2020-Aug-10 07:03 245 23.3
2020-Aug-10 06:58 249 0 gusting 4 23.3
2020-Aug-10 06:53 251 0 gusting 3 23.3
2020-Aug-10 06:48 256 0 gusting 3 23.3
2020-Aug-10 06:43 244 23.3
2020-Aug-10 06:38 227 0 gusting 1 23.3
2020-Aug-10 06:33 275 23.3
2020-Aug-10 06:28 242 23.3
2020-Aug-10 06:23 242 23.3
2020-Aug-10 06:18 248 23.3
2020-Aug-10 06:14 252 0 gusting 3 23.3
2020-Aug-10 06:08 281 0 gusting 3 23.3
2020-Aug-10 06:03 221 0 gusting 3 23.3
2020-Aug-10 05:59 265 23.9
2020-Aug-10 05:54 265 23.9
2020-Aug-10 05:48 257 23.9
2020-Aug-10 05:43 282 0 gusting 2 23.9
2020-Aug-10 05:38 286 23.9
2020-Aug-10 05:33 286 0 gusting 3 23.9
2020-Aug-10 05:28 229 0 gusting 3 23.9
2020-Aug-10 05:23 221 23.9
2020-Aug-10 05:18 221 0 gusting 2 23.9
2020-Aug-10 05:13 213 23.9
2020-Aug-10 05:08 258 24.4
2020-Aug-10 05:03 230 0 gusting 1 24.4
2020-Aug-10 04:58 208 24.4
2020-Aug-10 04:53 208 24.4
2020-Aug-10 04:49 208 24.4
2020-Aug-10 04:43 252 24.4
2020-Aug-10 04:38 249 0 gusting 4 24.4
2020-Aug-10 04:33 268 0 gusting 3 24.4
2020-Aug-10 04:28 185 24.4
2020-Aug-10 04:24 182 0 gusting 5 25.0
2020-Aug-10 04:18 277 0 gusting 2 25.0
2020-Aug-10 04:13 215 0 gusting 2 25.0
2020-Aug-10 04:09 280 1 gusting 2 25.0
2020-Aug-10 04:04 223 25.0
2020-Aug-10 03:58 194 0 gusting 5 25.0
2020-Aug-10 03:53 270 1 gusting 5 25.0
2020-Aug-10 03:48 222 0 gusting 2 25.0
2020-Aug-10 03:43 200 25.6
2020-Aug-10 03:38 265 0 gusting 4 25.6
2020-Aug-10 03:33 231 0 gusting 4 25.6
2020-Aug-10 03:28 248 0 gusting 4 25.6
2020-Aug-10 03:23 237 0 gusting 3 25.6
2020-Aug-10 03:18 222 0 gusting 3 25.6
2020-Aug-10 03:14 279 1 gusting 3 25.6
2020-Aug-10 03:08 238 0 gusting 4 25.6
2020-Aug-10 03:03 225 25.6
2020-Aug-10 02:58 261 0 gusting 5 26.1
2020-Aug-10 02:53 224 1 gusting 5 26.1
2020-Aug-10 02:48 229 0 gusting 4 26.1
2020-Aug-10 02:43 264 0 gusting 3 26.1
2020-Aug-10 02:39 311 0 gusting 3 26.1
2020-Aug-10 02:33 253 0 gusting 3 26.1
2020-Aug-10 02:28 289 0 gusting 3 26.1
2020-Aug-10 02:23 263 0 gusting 3 26.7
2020-Aug-10 02:18 219 0 gusting 3 26.7
2020-Aug-10 02:13 223 0 gusting 3 26.7
2020-Aug-10 02:08 231 0 gusting 2 26.7
2020-Aug-10 02:03 214 26.7
2020-Aug-10 01:58 214 26.7
2020-Aug-10 01:53 214 0 gusting 2 27.2
2020-Aug-10 01:48 272 27.2
2020-Aug-10 01:43 231 0 gusting 5 27.2
2020-Aug-10 01:38 225 0 gusting 2 27.2
2020-Aug-10 01:33 229 27.2
2020-Aug-10 01:28 259 0 gusting 2 27.2
2020-Aug-10 01:23 237 0 gusting 3 27.2
2020-Aug-10 01:18 224 1 gusting 3 27.8
2020-Aug-10 01:13 223 0 gusting 5 27.8
2020-Aug-10 01:08 240 2 gusting 5 27.8
2020-Aug-10 01:03 263 27.8
2020-Aug-10 00:58 230 1 gusting 5 27.8
2020-Aug-10 00:53 215 1 gusting 5 27.8
2020-Aug-10 00:48 252 1 gusting 6 27.8
2020-Aug-10 00:43 248 2 gusting 6 27.8
2020-Aug-10 00:38 273 0 gusting 5 28.3
2020-Aug-10 00:33 266 0 gusting 5 28.3
2020-Aug-10 00:28 313 28.3
2020-Aug-10 00:23 217 1 gusting 6 28.3
2020-Aug-10 00:18 232 0 gusting 6 28.3
2020-Aug-10 00:13 246 1 gusting 4 28.3
2020-Aug-10 00:08 262 0 gusting 4 28.3
2020-Aug-10 00:03 203 1 gusting 6 28.3
2020-Aug-09 23:58 204 1 gusting 6 28.9
2020-Aug-09 23:53 224 0 gusting 6 28.9
2020-Aug-09 23:48 187 28.9
2020-Aug-09 23:43 196 1 gusting 5 28.9
2020-Aug-09 23:38 153 0 gusting 4 29.4
2020-Aug-09 23:33 219 29.4
2020-Aug-09 23:28 219 3 gusting 5 29.4
2020-Aug-09 23:23 192 1 gusting 5 30.0
2020-Aug-09 23:18 179 30.0
2020-Aug-09 23:13 203 0 gusting 6 30.6
2020-Aug-09 23:08 218 1 gusting 6 30.6
2020-Aug-09 23:03 194 0 gusting 5 31.1
2020-Aug-09 22:58 188 1 gusting 5 31.1
2020-Aug-09 22:53 061 0 gusting 4 31.1
2020-Aug-09 22:48 059 0 gusting 4 31.7
2020-Aug-09 22:43 162 1 gusting 3 32.2
2020-Aug-09 22:38 215 1 gusting 5 32.2
2020-Aug-09 22:33 173 0 gusting 6 32.2
2020-Aug-09 22:28 245 2 gusting 6 32.2
2020-Aug-09 22:23 268 2 gusting 6 32.8
2020-Aug-09 22:18 236 1 gusting 7 32.8
2020-Aug-09 22:13 248 2 gusting 7 32.8
2020-Aug-09 22:08 333 2 gusting 8 32.8
2020-Aug-09 22:03 317 2 gusting 8 32.8
2020-Aug-09 21:59 274 2 gusting 6 32.8
2020-Aug-09 21:54 284 1 gusting 8 32.8
2020-Aug-09 21:48 279 2 gusting 7 32.8
2020-Aug-09 21:43 273 4 gusting 8 32.8
2020-Aug-09 21:39 275 3 gusting 8 32.8
2020-Aug-09 21:33 284 2 gusting 7 33.3
2020-Aug-09 21:28 300 1 gusting 6 32.8
2020-Aug-09 21:23 289 2 gusting 6 32.8
2020-Aug-09 21:18 280 2 gusting 6 32.8
2020-Aug-09 21:13 238 2 gusting 5 32.8
2020-Aug-09 21:08 316 0 gusting 4 32.2
2020-Aug-09 21:03 297 0 gusting 4 32.2
2020-Aug-09 20:59 329 1 gusting 4 31.7
2020-Aug-09 20:53 279 0 gusting 5 32.2
2020-Aug-09 20:48 267 1 gusting 5 32.2
2020-Aug-09 20:43 311 0 gusting 5 32.2
2020-Aug-09 20:38 261 2 gusting 6 32.2
2020-Aug-09 20:33 236 2 gusting 6 32.8
2020-Aug-09 20:28 270 1 gusting 6 32.8
2020-Aug-09 20:24 255 0 gusting 5 32.8
2020-Aug-09 20:18 282 2 gusting 6 32.8
2020-Aug-09 20:13 260 2 gusting 6 33.3
2020-Aug-09 20:08 226 3 gusting 6 33.3
2020-Aug-09 20:03 252 1 gusting 6 33.9
2020-Aug-09 19:58 296 2 gusting 6 33.9
2020-Aug-09 19:54 276 1 gusting 7 34.4
2020-Aug-09 19:48 194 3 gusting 7 34.4
2020-Aug-09 19:43 214 2 gusting 5 34.4
2020-Aug-09 19:38 290 0 gusting 4 33.9
2020-Aug-09 19:34 215 1 gusting 6 33.9
2020-Aug-09 19:28 205 1 gusting 8 33.9
2020-Aug-09 19:23 277 2 gusting 8 33.9
2020-Aug-09 19:18 211 0 gusting 9 33.3
2020-Aug-09 19:14 291 4 gusting 9 33.3
2020-Aug-09 19:08 304 3 gusting 5 33.3
2020-Aug-09 19:03 270 0 gusting 6 32.8
2020-Aug-09 18:58 258 2 gusting 6 32.8
2020-Aug-09 18:53 277 1 gusting 7 32.8
2020-Aug-09 18:48 299 2 gusting 7 32.8
2020-Aug-09 18:43 331 2 gusting 6 33.3
2020-Aug-09 18:38 223 0 gusting 7 33.3
2020-Aug-09 18:33 225 3 gusting 7 33.3
2020-Aug-09 18:28 232 2 gusting 6 32.8
2020-Aug-09 18:23 249 1 gusting 5 32.8
2020-Aug-09 18:18 305 32.2
2020-Aug-09 18:13 306 1 gusting 6 32.2
2020-Aug-09 18:08 246 2 gusting 6 32.2
2020-Aug-09 18:03 265 4 gusting 6 32.2
2020-Aug-09 17:58 242 2 gusting 6 31.7
2020-Aug-09 17:53 288 1 gusting 4 31.7
2020-Aug-09 17:48 302 0 gusting 6 31.1
2020-Aug-09 17:43 279 2 gusting 6 31.1
2020-Aug-09 17:39 251 0 gusting 5 31.7
2020-Aug-09 17:33 290 0 gusting 4 31.7
2020-Aug-09 17:28 265 0 gusting 5 31.7
2020-Aug-09 17:23 258 2 gusting 5 31.7
2020-Aug-09 17:18 250 1 gusting 6 31.7
2020-Aug-09 17:14 288 0 gusting 6 31.7
2020-Aug-09 17:09 265 1 gusting 4 31.7
2020-Aug-09 17:03 213 2 gusting 5 31.7
2020-Aug-09 16:58 329 1 gusting 6 31.7
2020-Aug-09 16:53 280 1 gusting 6 31.7
2020-Aug-09 16:48 275 2 gusting 6 31.7
2020-Aug-09 16:43 262 1 gusting 6 31.7
2020-Aug-09 16:39 261 2 gusting 6 32.2
2020-Aug-09 16:34 257 0 gusting 6 31.7
2020-Aug-09 16:23 277 0 gusting 4 31.1
2020-Aug-09 16:19 309 2 gusting 6 31.1
2020-Aug-09 16:13 237 2 gusting 6 31.1
2020-Aug-09 16:08 360 1 gusting 4 31.1
2020-Aug-09 16:03 321 0 gusting 7 30.6
2020-Aug-09 15:58 266 2 gusting 7 30.6
2020-Aug-09 15:53 306 1 gusting 6 31.1
2020-Aug-09 15:48 254 2 gusting 6 30.6
2020-Aug-09 15:43 303 1 gusting 6 30.6
2020-Aug-09 15:38 355 1 gusting 7 30.6
2020-Aug-09 15:34 265 3 gusting 7 30.6
2020-Aug-09 15:28 286 2 gusting 6 30.0
2020-Aug-09 15:23 290 3 gusting 6 30.0
2020-Aug-09 15:18 284 1 gusting 5 29.4
2020-Aug-09 15:14 296 3 gusting 6 29.4
2020-Aug-09 15:08 274 3 gusting 6 28.9
2020-Aug-09 15:03 279 1 gusting 3 28.9
2020-Aug-09 14:58 269 0 gusting 3 28.3
2020-Aug-09 14:53 261 1 gusting 5 28.3
2020-Aug-09 14:48 313 1 gusting 5 28.3
2020-Aug-09 14:44 296 1 gusting 3 28.3
2020-Aug-09 14:38 202 0 gusting 4 28.3
2020-Aug-09 14:33 213 0 gusting 5 27.8
2020-Aug-09 14:29 319 1 gusting 5 27.8
2020-Aug-09 14:23 270 2 gusting 5 28.3
2020-Aug-09 14:18 237 2 gusting 5 28.3
2020-Aug-09 14:13 242 1 gusting 3 28.3
2020-Aug-09 14:08 298 1 gusting 5 28.3
2020-Aug-09 14:03 279 1 gusting 4 27.8
2020-Aug-09 13:59 184 2 gusting 5 27.8
2020-Aug-09 13:53 238 1 gusting 6 27.2
2020-Aug-09 13:48 279 1 gusting 6 27.2
2020-Aug-09 13:43 336 1 gusting 5 27.2
2020-Aug-09 13:39 232 1 gusting 4 26.7
2020-Aug-09 13:33 278 1 gusting 5 26.7
2020-Aug-09 13:28 336 1 gusting 5 26.7
2020-Aug-09 13:23 301 2 gusting 5 26.1
2020-Aug-09 13:18 202 1 gusting 4 26.1
2020-Aug-09 13:13 200 1 gusting 5 26.1
2020-Aug-09 13:08 263 1 gusting 5 26.1
2020-Aug-09 13:03 212 1 gusting 5 25.6
2020-Aug-09 12:58 255 1 gusting 3 25.6
2020-Aug-09 12:53 316 0 gusting 5 25.0
2020-Aug-09 12:48 273 2 gusting 5 25.0
2020-Aug-09 12:43 291 1 gusting 6 25.0
2020-Aug-09 12:38 316 1 gusting 4 24.4
2020-Aug-09 12:33 268 1 gusting 5 24.4
2020-Aug-09 12:28 220 2 gusting 5 24.4
2020-Aug-09 12:24 237 0 gusting 4 23.9
2020-Aug-09 12:18 205 1 gusting 3 23.9
2020-Aug-09 12:13 255 0 gusting 5 23.3
2020-Aug-09 12:08 267 0 gusting 5 23.3
2020-Aug-09 12:03 263 1 gusting 3 23.3
2020-Aug-09 11:58 292 0 gusting 2 22.8
2020-Aug-09 11:53 254 0 gusting 3 22.8
2020-Aug-09 11:48 246 0 gusting 3 22.2
2020-Aug-09 11:44 284 0 gusting 2 22.2
2020-Aug-09 11:38 322 22.2
2020-Aug-09 11:33 292 21.7
2020-Aug-09 11:28 257 0 gusting 4 21.7
2020-Aug-09 11:23 243 1 gusting 4 21.7
2020-Aug-09 11:18 288 0 gusting 2 21.7
2020-Aug-09 11:13 328 0 gusting 1 21.1
2020-Aug-09 11:08 254 0 gusting 1 21.1
2020-Aug-09 11:03 293 21.1
2020-Aug-09 10:58 261 0 gusting 4 21.1
2020-Aug-09 10:53 260 21.1
2020-Aug-09 10:48 260 20.6
2020-Aug-09 10:43 260 0 gusting 2 20.6
2020-Aug-09 10:38 260 20.6
2020-Aug-09 10:33 260 20.6
2020-Aug-09 10:28 260 0 gusting 2 20.6
2020-Aug-09 10:23 260 0 gusting 2 20.6
2020-Aug-09 10:18 260 20.6
2020-Aug-09 10:14 260 0 gusting 2 20.6
2020-Aug-09 10:08 263 20.6
2020-Aug-09 10:03 278 20.6
2020-Aug-09 09:58 278 20.6
2020-Aug-09 09:53 278 20.6
2020-Aug-09 09:48 278 20.6
2020-Aug-09 09:43 278 20.6
2020-Aug-09 09:38 278 20.6
2020-Aug-09 09:33 278 20.6
2020-Aug-09 09:28 278 20.6
2020-Aug-09 09:24 278 20.6
2020-Aug-09 09:18 278 20.6
2020-Aug-09 09:13 265 0 gusting 3 20.6
2020-Aug-09 09:08 279 20.6
2020-Aug-09 09:03 279 0 gusting 1 20.6
2020-Aug-09 08:59 279 20.6
2020-Aug-09 08:53 277 20.6
2020-Aug-09 08:48 292 0 gusting 3 20.6
2020-Aug-09 08:43 330 0 gusting 2 20.6
2020-Aug-09 08:38 279 20.6
2020-Aug-09 08:33 279 0 gusting 2 20.6
2020-Aug-09 08:29 270 20.6
2020-Aug-09 08:23 229 20.6
2020-Aug-09 08:18 263 1 gusting 5 20.6
2020-Aug-09 08:13 241 2 gusting 5 20.6
2020-Aug-09 08:08 306 0 gusting 2 20.6
2020-Aug-09 08:03 254 0 gusting 5 20.6
2020-Aug-09 07:58 258 0 gusting 3 20.6
2020-Aug-09 07:53 294 20.6
2020-Aug-09 07:48 294 20.6
2020-Aug-09 07:43 262 1 gusting 3 20.6
2020-Aug-09 07:39 259 20.6
2020-Aug-09 07:34 263 20.6
2020-Aug-09 07:28 254 0 gusting 2 20.6
2020-Aug-09 07:23 190 0 gusting 3 20.6
2020-Aug-09 07:18 186 20.6
2020-Aug-09 07:13 269 1 gusting 5 20.6
2020-Aug-09 07:08 276 0 gusting 4 20.6
2020-Aug-09 07:03 187 0 gusting 3 20.6
2020-Aug-09 06:58 269 0 gusting 3 20.6
2020-Aug-09 06:53 240 20.6
2020-Aug-09 06:48 234 0 gusting 3 21.1
2020-Aug-09 06:43 287 0 gusting 3 21.1
2020-Aug-09 06:38 259 0 gusting 3 21.1
2020-Aug-09 06:33 235 0 gusting 4 21.1
2020-Aug-09 06:28 275 0 gusting 4 21.1
2020-Aug-09 06:23 208 0 gusting 2 21.1
2020-Aug-09 06:18 225 0 gusting 2 21.1
2020-Aug-09 06:13 248 0 gusting 3 21.1
2020-Aug-09 06:08 258 0 gusting 3 21.1
2020-Aug-09 06:03 219 0 gusting 2 21.1
2020-Aug-09 05:58 279 0 gusting 3 21.1
2020-Aug-09 05:53 216 0 gusting 2 21.1
2020-Aug-09 05:48 262 21.1
2020-Aug-09 05:43 321 21.1
2020-Aug-09 05:38 263 0 gusting 2 21.1
2020-Aug-09 05:33 229 0 gusting 2 21.1
2020-Aug-09 05:28 235 21.1
2020-Aug-09 05:23 233 0 gusting 4 21.7
2020-Aug-09 05:18 257 21.7
2020-Aug-09 05:13 228 0 gusting 3 21.7
2020-Aug-09 05:08 221 0 gusting 2 21.7
2020-Aug-09 05:03 281 21.7
2020-Aug-09 04:58 218 0 gusting 2 21.7
2020-Aug-09 04:53 245 21.7
2020-Aug-09 04:48 189 21.7
2020-Aug-09 04:43 309 21.7
2020-Aug-09 04:38 229 21.7
2020-Aug-09 04:33 239 0 gusting 3 21.7
2020-Aug-09 04:28 295 0 gusting 3 21.7
2020-Aug-09 04:23 282 0 gusting 3 22.2
2020-Aug-09 04:18 198 22.2
2020-Aug-09 04:13 257 0 gusting 3 22.2
2020-Aug-09 04:08 195 1 gusting 4 22.2
2020-Aug-09 04:03 215 0 gusting 4 22.2
2020-Aug-09 03:58 244 1 gusting 4 22.2
2020-Aug-09 03:53 218 1 gusting 4 22.2
2020-Aug-09 03:48 196 22.2
2020-Aug-09 03:43 196 0 gusting 2 22.2
2020-Aug-09 03:38 197 22.8
2020-Aug-09 03:33 198 22.8
2020-Aug-09 03:28 196 1 gusting 3 22.8
2020-Aug-09 03:23 195 0 gusting 3 22.8
2020-Aug-09 03:18 273 22.8
2020-Aug-09 03:13 329 22.8
2020-Aug-09 03:08 202 0 gusting 2 22.8
2020-Aug-09 03:03 202 0 gusting 2 22.8
2020-Aug-09 02:58 205 0 gusting 1 23.3
2020-Aug-09 02:53 223 23.3
2020-Aug-09 02:48 236 23.3
2020-Aug-09 02:43 288 23.3
2020-Aug-09 02:38 271 0 gusting 3 23.3
2020-Aug-09 02:33 203 23.3
2020-Aug-09 02:28 224 23.9
2020-Aug-09 02:23 301 23.9
2020-Aug-09 02:18 202 0 gusting 3 23.9
2020-Aug-09 02:13 188 0 gusting 2 23.9
2020-Aug-09 02:09 175 23.9
2020-Aug-09 02:03 199 0 gusting 2 23.9
2020-Aug-09 01:58 213 0 gusting 2 24.4
2020-Aug-09 01:53 213 0 gusting 4 24.4
2020-Aug-09 01:48 212 24.4
2020-Aug-09 01:43 194 24.4
2020-Aug-09 01:38 202 24.4
2020-Aug-09 01:34 202 24.4
2020-Aug-09 01:29 200 24.4
2020-Aug-09 01:23 191 0 gusting 2 25.0
2020-Aug-09 01:18 157 25.0
2020-Aug-09 01:13 209 25.0
2020-Aug-09 01:08 209 25.0
2020-Aug-09 01:03 113 25.0
2020-Aug-09 00:58 113 0 gusting 1 25.0
2020-Aug-09 00:53 141 25.0
2020-Aug-09 00:48 141 25.0
2020-Aug-09 00:43 194 25.6
2020-Aug-09 00:38 107 0 gusting 2 25.6
2020-Aug-09 00:33 092 25.6
2020-Aug-09 00:28 128 25.6
2020-Aug-09 00:23 128 25.6
2020-Aug-09 00:18 128 25.6
2020-Aug-09 00:13 128 25.6
2020-Aug-09 00:08 128 26.1
2020-Aug-09 00:03 128 26.1
2020-Aug-08 23:58 128 0 gusting 2 26.1
2020-Aug-08 23:54 139 0 gusting 3 26.1
2020-Aug-08 23:48 128 0 gusting 3 26.1
2020-Aug-08 23:43 103 1 gusting 3 26.1
2020-Aug-08 23:38 129 0 gusting 2 26.1
2020-Aug-08 23:33 129 26.1
2020-Aug-08 23:28 129 0 gusting 3 26.1
2020-Aug-08 23:23 087 0 gusting 4 26.1
2020-Aug-08 23:18 114 1 gusting 6 26.7
2020-Aug-08 23:13 128 1 gusting 6 26.7
2020-Aug-08 23:08 081 26.7
2020-Aug-08 23:03 124 1 gusting 5 26.7
2020-Aug-08 22:58 099 2 gusting 5 26.7
2020-Aug-08 22:53 109 1 gusting 4 26.7
2020-Aug-08 22:48 082 3 gusting 7 26.7
2020-Aug-08 22:43 153 2 gusting 6 26.7
2020-Aug-08 22:38 074 2 gusting 6 26.7
2020-Aug-08 22:33 109 2 gusting 7 26.7
2020-Aug-08 22:28 083 4 gusting 7 26.7
2020-Aug-08 22:23 139 2 gusting 6 26.7
2020-Aug-08 22:18 113 3 gusting 6 26.7
2020-Aug-08 22:13 108 2 gusting 6 26.7
2020-Aug-08 22:08 139 3 gusting 7 27.2
2020-Aug-08 22:03 093 3 gusting 7 27.2
2020-Aug-08 21:58 104 2 gusting 6 27.2
2020-Aug-08 21:53 105 2 gusting 6 27.8
2020-Aug-08 21:48 109 2 gusting 6 27.8
2020-Aug-08 21:43 076 3 gusting 10 27.8
2020-Aug-08 21:38 112 2 gusting 10 27.8
2020-Aug-08 21:33 107 5 gusting 8 27.8
2020-Aug-08 21:28 104 4 gusting 7 27.8
2020-Aug-08 21:23 077 3 gusting 8 28.3
2020-Aug-08 21:18 066 5 gusting 8 28.3
2020-Aug-08 21:13 105 4 gusting 7 28.3
2020-Aug-08 21:08 118 4 gusting 8 28.9
2020-Aug-08 21:03 123 4 gusting 8 28.9
2020-Aug-08 20:59 097 3 gusting 7 28.9
2020-Aug-08 20:53 120 3 gusting 7 28.9
2020-Aug-08 20:48 121 3 gusting 7 29.4
2020-Aug-08 20:43 160 3 gusting 5 29.4
2020-Aug-08 20:38 105 2 gusting 6 30.0
2020-Aug-08 20:34 134 2 gusting 6 29.4
2020-Aug-08 20:28 223 0 gusting 6 30.0
2020-Aug-08 20:23 128 2 gusting 6 30.0
2020-Aug-08 20:18 081 1 gusting 3 30.0
2020-Aug-08 20:14 113 0 gusting 3 30.0
2020-Aug-08 20:08 099 0 gusting 3 30.0
2020-Aug-08 20:03 109 0 gusting 3 30.0
2020-Aug-08 19:58 234 0 gusting 3 29.4
2020-Aug-08 19:53 120 1 gusting 7 30.0
2020-Aug-08 19:48 162 0 gusting 7 29.4
2020-Aug-08 19:43 132 3 gusting 7 30.0
2020-Aug-08 19:39 130 2 gusting 5 30.6
2020-Aug-08 19:33 257 0 gusting 3 30.6
2020-Aug-08 19:28 186 0 gusting 4 30.0
2020-Aug-08 19:23 140 1 gusting 4 30.0
2020-Aug-08 19:18 115 2 gusting 6 30.0
2020-Aug-08 19:13 075 2 gusting 6 30.0
2020-Aug-08 19:08 095 0 gusting 5 30.0
2020-Aug-08 19:03 126 1 gusting 5 30.0
2020-Aug-08 18:58 144 1 gusting 7 30.0
2020-Aug-08 18:53 088 3 gusting 7 30.0
2020-Aug-08 18:48 360 1 gusting 6 30.6
2020-Aug-08 18:43 129 1 gusting 4 30.6
2020-Aug-08 18:38 094 1 gusting 3 30.6
2020-Aug-08 18:34 081 0 gusting 3 30.6
2020-Aug-08 18:29 141 30.0
2020-Aug-08 18:24 111 30.0
2020-Aug-08 18:19 124 1 gusting 4 30.0
2020-Aug-08 18:13 143 0 gusting 3 29.4
2020-Aug-08 18:08 271 0 gusting 5 29.4
2020-Aug-08 18:03 265 2 gusting 5 30.0
2020-Aug-08 17:58 329 29.4
2020-Aug-08 17:54 109 0 gusting 3 29.4
2020-Aug-08 17:48 129 0 gusting 4 29.4
2020-Aug-08 17:43 111 0 gusting 4 29.4
2020-Aug-08 17:38 204 28.9
2020-Aug-08 17:34 286 1 gusting 6 28.3
2020-Aug-08 17:28 123 0 gusting 4 28.3
2020-Aug-08 17:23 126 1 gusting 3 28.3
2020-Aug-08 17:18 090 1 gusting 4 28.3
2020-Aug-08 17:13 115 0 gusting 3 28.3
2020-Aug-08 17:08 067 1 gusting 4 28.3
2020-Aug-08 17:03 090 2 gusting 6 27.8
2020-Aug-08 16:58 087 2 gusting 6 28.3
2020-Aug-08 16:53 098 1 gusting 5 28.3
2020-Aug-08 16:48 124 0 gusting 3 28.3
2020-Aug-08 16:44 080 0 gusting 4 28.3
2020-Aug-08 16:38 113 1 gusting 4 28.3
2020-Aug-08 16:33 236 0 gusting 3 27.8
2020-Aug-08 16:28 164 27.8
2020-Aug-08 16:23 114 0 gusting 4 27.2
2020-Aug-08 16:18 112 1 gusting 4 27.2
2020-Aug-08 16:14 108 27.2
2020-Aug-08 16:08 103 0 gusting 5 26.7
2020-Aug-08 16:04 005 26.7
2020-Aug-08 15:53 152 1 gusting 6 26.7
2020-Aug-08 15:48 103 2 gusting 6 26.7
2020-Aug-08 15:43 140 1 gusting 4 26.1
2020-Aug-08 15:38 213 26.1
2020-Aug-08 15:33 217 0 gusting 3 26.1
2020-Aug-08 15:28 064 25.6
2020-Aug-08 15:23 046 0 gusting 4 25.6
2020-Aug-08 15:18 107 0 gusting 2 25.0
2020-Aug-08 15:13 089 0 gusting 4 25.0
2020-Aug-08 15:08 084 1 gusting 4 25.0
2020-Aug-08 15:03 116 0 gusting 3 25.0
2020-Aug-08 14:58 246 0 gusting 2 24.4
2020-Aug-08 14:53 080 24.4
2020-Aug-08 14:48 086 24.4
2020-Aug-08 14:44 100 0 gusting 6 24.4
2020-Aug-08 14:38 126 0 gusting 3 24.4
2020-Aug-08 14:33 103 1 gusting 2 24.4
2020-Aug-08 14:28 058 23.9
2020-Aug-08 14:23 058 23.9
2020-Aug-08 14:18 058 23.9
2020-Aug-08 14:13 136 23.9
2020-Aug-08 14:09 093 23.3
2020-Aug-08 14:03 086 0 gusting 4 23.3
2020-Aug-08 13:58 050 23.3
2020-Aug-08 13:53 050 23.3
2020-Aug-08 13:48 098 23.3
2020-Aug-08 13:43 098 0 gusting 5 23.3
2020-Aug-08 13:38 098 0 gusting 2 23.3
2020-Aug-08 13:33 012 0 gusting 1 22.8
2020-Aug-08 13:24 034 22.8
2020-Aug-08 13:18 034 22.8
2020-Aug-08 13:13 005 22.2
2020-Aug-08 13:08 340 22.2
2020-Aug-08 13:03 319 21.7
2020-Aug-08 12:58 319 21.7
2020-Aug-08 12:53 319 21.7
2020-Aug-08 12:48 319 21.1
2020-Aug-08 12:43 319 21.1
2020-Aug-08 12:38 319 21.1
2020-Aug-08 12:33 319 21.1
2020-Aug-08 12:29 319 21.1
2020-Aug-08 12:23 319 20.6
2020-Aug-08 12:18 319 20.6
2020-Aug-08 12:13 319 20.6
2020-Aug-08 12:08 319 20.6
2020-Aug-08 12:03 319 20.6
2020-Aug-08 11:58 319 20.6
2020-Aug-08 11:53 319 20.0
2020-Aug-08 11:48 319 20.0
2020-Aug-08 11:43 319 20.0
2020-Aug-08 11:38 319 20.0
2020-Aug-08 11:34 319 20.0
2020-Aug-08 11:28 319 20.0
2020-Aug-08 11:23 319 20.0
2020-Aug-08 11:19 319 20.0
2020-Aug-08 11:13 319 19.4
2020-Aug-08 11:08 319 19.4
2020-Aug-08 11:03 319 19.4
2020-Aug-08 10:58 319 19.4
2020-Aug-08 10:53 319 19.4
2020-Aug-08 10:48 319 19.4
2020-Aug-08 10:43 319 19.4
2020-Aug-08 10:39 319 19.4
2020-Aug-08 10:33 319 19.4
2020-Aug-08 10:28 319 19.4
2020-Aug-08 10:23 319 19.4
2020-Aug-08 10:18 319 19.4
2020-Aug-08 10:13 319 19.4
2020-Aug-08 10:09 319 19.4
2020-Aug-08 10:04 319 19.4
2020-Aug-08 09:58 319 19.4
2020-Aug-08 09:53 319 19.4
2020-Aug-08 09:48 319 19.4
2020-Aug-08 09:43 319 20.0
2020-Aug-08 09:38 319 20.0
2020-Aug-08 09:33 319 20.0
2020-Aug-08 09:28 319 20.0
2020-Aug-08 09:23 234 20.0
2020-Aug-08 09:18 234 20.0
2020-Aug-08 09:13 234 20.0
2020-Aug-08 09:08 234 20.0
2020-Aug-08 09:03 234 20.0
2020-Aug-08 08:58 236 20.0
2020-Aug-08 08:53 236 20.0
2020-Aug-08 08:48 236 20.0
2020-Aug-08 08:43 236 20.0
2020-Aug-08 08:38 236 20.0
2020-Aug-08 08:33 236 20.0
2020-Aug-08 08:28 236 20.0
2020-Aug-08 08:23 236 20.0
2020-Aug-08 08:18 236 20.0
2020-Aug-08 08:14 236 20.0
2020-Aug-08 08:08 236 20.0
2020-Aug-08 08:03 236 20.0